Weather History for Benson, MN

Change the Weather History Date:

Tuesday, November 20, 2012

  Actual Average Record
Temperature  
Mean Temperature 32 °F -  
Max Temperature 48 °F 34 °F 67 °F (1962)
Min Temperature 15 °F 20 °F -5 °F (2011)
Degree Days  
Heating Degree Days 34    
Moisture  
Dew Point 28 °F    
Average Humidity 81    
Maximum Humidity 100    
Minimum Humidity 57    
Precipitation  
Precipitation 0.00 in - - ()
Sea Level Pressure  
Sea Level Pressure 30.09 in    
Wind  
Wind Speed 5 mph (SSE)    
Max Wind Speed 14 mph    
Max Gust Speed 21 mph    
Visibility 6 miles    
Events Fog , Snow    
Averages and records for this station are not official NWS values.
T = Trace of Precipitation, MM = Missing Value Source: NWS Daily Summary

Daily Weather History Graph

Daily Weather History Graph

Search for Another Location

Airport:

Trip Planner

Search our weather history database for the weather conditions in past years. The results will help you decide how hot, cold, wet, or windy it might be!

Date:

Astronomy

Nov. 20, 2012 Rise Set
Actual Time 7:28 AM CST 4:47 PM CST
Civil Twilight 6:56 AM CST 5:20 PM CST
Nautical Twilight 6:19 AM CST 5:56 PM CST
Astronomical Twilight 5:44 AM CST 6:31 PM CST
Moon 12:53 PM CST (11/20) No Moon Set
Length of Visible Light 10h 24m
Length of Day
9h 19m
First Quarter, 51% of the Moon is Illuminated
Nov 20
First Quarter
Nov 28
Full
Dec 6
Last Quarter
Dec 13
New
Dec 19
First Quarter

Hourly Weather History & Observations

Time (CST) Temp. Windchill Dew Point Humidity Pressure Visibility Wind Dir Wind Speed Gust Speed Precip Events Conditions
12:13 AM 28.4 °F 22.2 °F 28.4 °F 100% 30.13 in 5.0 mi North 5.8 mph - N/A   Clear
12:32 AM 26.6 °F 19.1 °F 24.8 °F 93% 30.13 in 4.0 mi North 6.9 mph - N/A   Clear
12:53 AM 26.6 °F 20.0 °F 24.8 °F 93% 30.13 in 5.0 mi North 5.8 mph - N/A   Clear
1:13 AM 24.8 °F 17.9 °F 24.8 °F 100% 30.14 in 5.0 mi North 5.8 mph - N/A   Clear
1:32 AM 26.6 °F 21.2 °F 26.6 °F 100% 30.14 in 4.0 mi North 4.6 mph - N/A   Clear
1:53 AM 24.8 °F 19.1 °F 23.0 °F 93% 30.14 in 4.0 mi North 4.6 mph - N/A   Clear
2:13 AM 23.0 °F 13.9 °F 21.2 °F 93% 30.16 in 3.0 mi NW 8.1 mph - N/A   Clear
2:32 AM 24.8 °F 17.9 °F 23.0 °F 93% 30.15 in 4.0 mi North 5.8 mph - N/A   Clear
2:53 AM 24.8 °F 19.1 °F 23.0 °F 93% 30.16 in 3.0 mi North 4.6 mph - N/A   Clear
3:13 AM 21.2 °F 13.6 °F 21.2 °F 100% 30.16 in 4.0 mi North 5.8 mph - N/A   Clear
3:32 AM 23.0 °F - 21.2 °F 93% 30.16 in 3.0 mi Calm Calm - N/A   Clear
3:53 AM 21.2 °F - 21.2 °F 100% 30.16 in 2.5 mi Calm Calm - N/A   Clear
4:13 AM 23.0 °F - 23.0 °F 100% 30.16 in 1.5 mi Calm Calm - N/A   Mist
4:32 AM 21.2 °F - 19.4 °F 93% 30.15 in 3.0 mi Calm Calm - N/A   Scattered Clouds
4:53 AM 21.2 °F - 19.4 °F 93% 30.15 in 0.2 mi Calm Calm - N/A Fog Light Freezing Fog
5:12 AM 19.4 °F - 17.6 °F 93% 30.15 in 0.2 mi Calm Calm - N/A Fog Light Freezing Fog
5:32 AM 17.6 °F - 15.8 °F 93% 30.15 in 0.2 mi Calm Calm - N/A Snow Light Snow
5:53 AM 17.6 °F 12.3 °F 15.8 °F 93% 30.14 in 0.2 mi East 3.5 mph - N/A Fog Light Freezing Fog
6:12 AM 15.8 °F - 14.0 °F 93% 30.14 in 0.2 mi Calm Calm - N/A Fog Light Freezing Fog
6:32 AM 15.8 °F - 15.8 °F 100% 30.15 in 0.2 mi Calm Calm - N/A Fog Light Freezing Fog
6:53 AM 17.6 °F - 15.8 °F 93% 30.17 in 0.2 mi Calm Calm - N/A Snow Light Snow
7:12 AM 19.4 °F - 17.6 °F 93% 30.17 in 0.2 mi Calm Calm - N/A Fog Light Freezing Fog
7:33 AM 19.4 °F - 19.4 °F 100% 30.18 in 0.2 mi Calm Calm - N/A Fog Light Freezing Fog
7:53 AM 21.2 °F - 21.2 °F 100% 30.19 in 0.2 mi Calm Calm - N/A Fog Light Freezing Fog
8:12 AM 23.0 °F - 21.2 °F 93% 30.18 in 0.2 mi Calm Calm - N/A Fog Light Freezing Fog
8:33 AM 23.0 °F - 21.2 °F 93% 30.18 in 0.2 mi Calm Calm - N/A Fog Light Freezing Fog
8:53 AM 24.8 °F 20.5 °F 23.0 °F 93% 30.16 in 0.2 mi SE 3.5 mph - N/A Fog Light Freezing Fog
9:12 AM 24.8 °F - 24.8 °F 100% 30.16 in 0.2 mi Calm Calm - N/A Fog Light Freezing Fog
9:33 AM 26.6 °F - 24.8 °F 93% 30.16 in 0.2 mi Calm Calm - N/A Fog Light Freezing Fog
9:52 AM 26.6 °F - 26.6 °F 100% 30.16 in 0.2 mi Calm Calm - N/A Fog Light Freezing Fog
10:12 AM 28.4 °F - 26.6 °F 93% 30.16 in 0.2 mi Calm Calm - N/A Fog Light Freezing Fog
10:33 AM 30.2 °F - 28.4 °F 93% 30.16 in 0.2 mi Calm Calm - N/A Fog Light Freezing Fog
10:52 AM 30.2 °F - 30.2 °F 100% 30.17 in 0.2 mi Calm Calm - N/A Fog Light Freezing Fog
11:12 AM 30.2 °F 26.7 °F 30.2 °F 100% 30.16 in 0.2 mi South 3.5 mph - N/A Fog Light Freezing Fog
11:33 AM 32.0 °F 26.4 °F 32.0 °F 100% 30.15 in 0.2 mi South 5.8 mph - N/A Fog Fog
11:52 AM 33.8 °F 27.7 °F 33.8 °F 100% 30.14 in 0.2 mi SSE 6.9 mph - N/A Fog Fog
12:13 PM 35.6 °F 29.2 °F 35.6 °F 100% 30.12 in 2.5 mi South 8.1 mph - N/A   Mostly Cloudy
12:33 PM 37.4 °F 34.9 °F 35.6 °F 93% 30.12 in 5.0 mi South 3.5 mph - N/A   Scattered Clouds
1:13 PM 42.8 °F 38.6 °F 39.2 °F 87% 30.10 in 10.0 mi South 6.9 mph - N/A   Clear
1:33 PM 44.6 °F 40.2 °F 37.4 °F 76% 30.10 in 10.0 mi SSE 8.1 mph - N/A   Clear
1:52 PM 44.6 °F 40.2 °F 35.6 °F 71% 30.08 in 10.0 mi SSE 8.1 mph - N/A   Clear
2:13 PM 48.2 °F - 35.6 °F 62% 30.07 in 10.0 mi SSE 10.4 mph - N/A   Clear
2:33 PM 48.2 °F - 35.6 °F 62% 30.06 in 7.0 mi South 10.4 mph - N/A   Clear
2:52 PM 48.2 °F - 35.6 °F 62% 30.05 in 10.0 mi South 12.7 mph - N/A   Clear
3:13 PM 48.2 °F - 37.4 °F 66% 30.03 in 10.0 mi South 11.5 mph - N/A   Clear
3:32 PM 48.2 °F - 35.6 °F 62% 30.04 in 10.0 mi South 10.4 mph - N/A   Clear
3:52 PM 48.2 °F - 37.4 °F 66% 30.03 in 10.0 mi South 9.2 mph - N/A   Clear
4:13 PM 48.2 °F - 35.6 °F 62% 30.03 in 10.0 mi SSE 12.7 mph 17.3 mph N/A   Clear
4:32 PM 48.2 °F - 37.4 °F 66% 30.02 in 10.0 mi SSE 10.4 mph 18.4 mph N/A   Clear
4:53 PM 48.2 °F - 35.6 °F 62% 30.02 in 10.0 mi SSE 13.8 mph 20.7 mph N/A   Clear
5:13 PM 48.2 °F - 35.6 °F 62% 30.01 in 10.0 mi SSE 11.5 mph 18.4 mph N/A   Clear
5:32 PM 46.4 °F 40.4 °F 35.6 °F 66% 30.01 in 10.0 mi South 13.8 mph - N/A   Clear
5:53 PM 46.4 °F 40.7 °F 33.8 °F 62% 30.01 in 10.0 mi South 12.7 mph 18.4 mph N/A   Clear
6:13 PM 46.4 °F 40.7 °F 33.8 °F 62% 30.01 in 10.0 mi South 12.7 mph - N/A   Clear
6:32 PM 44.6 °F 39.7 °F 33.8 °F 66% 30.01 in 10.0 mi South 9.2 mph - N/A   Clear
6:53 PM 44.6 °F 39.7 °F 32.0 °F 61% 30.01 in 10.0 mi South 9.2 mph - N/A   Clear
7:13 PM 44.6 °F 39.7 °F 32.0 °F 61% 30.00 in 10.0 mi South 9.2 mph - N/A   Clear
7:32 PM 44.6 °F 39.2 °F 32.0 °F 61% 30.00 in 10.0 mi South 10.4 mph - N/A   Clear
7:53 PM 42.8 °F 38.0 °F 32.0 °F 66% 30.00 in 10.0 mi South 8.1 mph - N/A   Clear
8:13 PM 42.8 °F 37.5 °F 30.2 °F 61% 29.99 in 10.0 mi South 9.2 mph - N/A   Clear
8:32 PM 42.8 °F 38.0 °F 30.2 °F 61% 29.99 in 10.0 mi South 8.1 mph - N/A   Clear
8:53 PM 42.8 °F 37.0 °F 30.2 °F 61% 29.98 in 10.0 mi South 10.4 mph - N/A   Clear
9:13 PM 44.6 °F 39.7 °F 30.2 °F 57% 29.97 in 10.0 mi South 9.2 mph - N/A   Clear
9:32 PM 42.8 °F 37.5 °F 30.2 °F 61% 29.97 in 10.0 mi South 9.2 mph - N/A   Clear
9:53 PM 42.8 °F 38.0 °F 30.2 °F 61% 29.96 in 10.0 mi South 8.1 mph - N/A   Clear
10:13 PM 42.8 °F 39.3 °F 30.2 °F 61% 29.95 in 10.0 mi South 5.8 mph - N/A   Clear
10:32 PM 41.0 °F 37.1 °F 30.2 °F 65% 29.94 in 10.0 mi SSE 5.8 mph - N/A   Clear
10:53 PM 39.2 °F 35.9 °F 30.2 °F 70% 29.94 in 10.0 mi SSE 4.6 mph - N/A   Clear
11:13 PM 39.2 °F 34.2 °F 30.2 °F 70% 29.94 in 10.0 mi South 6.9 mph - N/A   Clear
11:32 PM 39.2 °F 35.0 °F 30.2 °F 70% 29.94 in 10.0 mi South 5.8 mph - N/A   Clear
11:53 PM 41.0 °F 36.4 °F 30.2 °F 65% 29.94 in 10.0 mi SSE 6.9 mph - N/A   Clear